Location: Hylvaty SDH
(49.9612°N, 16.4057°E)
Time: 01:22:19
(UTC+01:00)

Tiros 1 despin weight - All Passes

Search period start: 26 January 2020 00:00
Search period end: 05 February 2020 00:00
Orbit: 594 x 642 km, 48.2° (Epoch: 25 January)

Date Brightness Start Highest point End Pass type
(mag) Time Alt. Az. Time Alt. Az. Time Alt. Az.
26 Jan - 10:58:58 10° SSW 11:02:53 30° SSE 11:06:51 10° E daylight
26 Jan - 12:39:30 10° WSW 12:44:01 64° S 12:48:36 10° E daylight
26 Jan - 14:20:54 10° W 14:25:27 67° S 14:30:05 10° ESE daylight
26 Jan - 16:02:31 10° W 16:06:40 33° SSW 16:10:51 10° SE daylight
27 Jan - 09:36:06 10° S 09:38:28 14° SE 09:40:52 10° ESE daylight
27 Jan - 11:14:57 10° SW 11:19:12 43° SSE 11:23:33 10° E daylight
27 Jan - 12:55:58 10° W 13:00:31 72° S 13:05:09 10° E daylight
27 Jan - 14:37:26 10° W 14:41:56 55° SSW 14:46:29 10° ESE daylight
27 Jan - 16:19:22 10° W 16:22:56 22° SW 16:26:30 10° SSE daylight
28 Jan - 09:51:06 10° SSW 09:54:38 23° SE 09:58:13 10° E daylight
28 Jan - 11:31:11 10° WSW 11:35:37 57° SSE 11:40:08 10° E daylight
28 Jan - 13:12:29 10° W 13:17:03 71° S 13:21:39 10° ESE daylight
28 Jan - 14:54:02 10° W 14:58:21 40° SSW 15:02:42 10° SE daylight
28 Jan - 16:36:51 10° WSW 16:39:04 13° SW 16:41:18 10° SSW daylight
29 Jan - 10:06:50 10° SW 10:10:53 34° SSE 10:15:02 10° E daylight
29 Jan - 11:47:36 10° WSW 11:52:06 68° S 11:56:41 10° E daylight
29 Jan - 13:29:02 10° W 13:33:33 62° SSW 13:38:07 10° ESE daylight
29 Jan - 15:10:44 10° W 15:14:40 28° SSW 15:18:37 10° SSE daylight
30 Jan - 08:43:28 10° S 08:46:24 17° SE 08:49:24 10° E daylight
30 Jan - 10:22:56 10° SW 10:27:15 48° SSE 10:31:40 10° E daylight
30 Jan - 12:04:06 10° W 12:08:37 72° S 12:13:13 10° E daylight
30 Jan - 13:45:35 10° W 13:49:59 48° SSW 13:54:27 10° SE daylight
30 Jan - 15:27:46 10° W 15:30:52 18° SW 15:34:00 10° S daylight
31 Jan - 08:58:50 10° SSW 09:02:37 27° SSE 09:06:27 10° E daylight
31 Jan - 10:39:16 10° WSW 10:43:42 62° SSE 10:48:14 10° E daylight
31 Jan - 12:20:37 10° W 12:25:08 68° S 12:29:43 10° ESE daylight
31 Jan - 14:02:12 10° W 14:06:22 35° SSW 14:10:33 10° SE daylight
31 Jan - 15:46:19 10° SW 15:46:58 10° SW 15:47:38 10° SW daylight
01 Feb - 07:36:17 10° SSE 07:38:15 13° SE 07:40:13 10° ESE daylight
01 Feb - 09:14:45 10° SW 09:18:55 40° SSE 09:23:10 10° E daylight
01 Feb - 10:55:43 10° WSW 11:00:12 71° S 11:04:46 10° E daylight
01 Feb - 12:37:09 10° W 12:41:37 56° SSW 12:46:08 10° ESE daylight
01 Feb - 14:19:01 10° W 14:22:38 23° SW 14:26:18 10° SSE daylight
02 Feb - 07:51:01 10° SSW 07:54:23 21° SE 07:57:46 10° E daylight
02 Feb - 09:30:58 10° WSW 09:35:20 54° SSE 09:39:46 10° E daylight
02 Feb - 11:12:14 10° W 11:16:43 71° S 11:21:17 10° E daylight
02 Feb - 12:53:44 10° W 12:58:02 42° SSW 13:02:23 10° SE daylight
02 Feb - 14:36:21 10° WSW 14:38:48 14° SW 14:41:17 10° S daylight
03 Feb - 08:06:40 10° SW 08:10:37 32° SSE 08:14:38 10° E daylight
03 Feb - 09:47:21 10° WSW 09:51:48 66° S 09:56:18 10° E daylight
03 Feb - 11:28:45 10° W 11:33:13 64° SSW 11:37:45 10° ESE daylight
03 Feb - 13:10:25 10° W 13:14:22 29° SSW 13:18:21 10° SSE daylight
04 Feb - 06:43:29 10° S 06:46:11 16° SE 06:48:53 10° ESE visible
04 Feb - 08:22:44 10° SW 08:26:58 46° SSE 08:31:17 10° E daylight
04 Feb - 10:03:51 10° W 10:08:19 72° S 10:12:50 10° E daylight
04 Feb - 11:45:18 10° W 11:49:41 50° SSW 11:54:07 10° ESE daylight
04 Feb - 13:27:23 10° W 13:30:36 19° SW 13:33:50 10° S daylight
